AQI (7)

Current Conditions for Foresthill, CA. Sunny, Dry   
Visibility: 10 miles
Space WX Alerts: CONTINUED ALERT:  Electron 2MeV Integral Flux exceeded 1000pfu ( Latest Alert ) - Issue Time: 2018 Sep 21 0900 UTC

  Summary / Temperature 

Current Temperature
82.9°F
28.3°C
(24/hr Ago)
80.6°F
(Apparent temp)
78.0°F
Warm
Heat Index
80.5°F 

82.9°F/ 28.3°C
Little or no discomfort

 Temp Rate:

 24/hr Difference:

 Avg Running Temp:

 Todays High:

 Todays Low:

 Y-days High:

 Y-days Low:

 Todays HeatIdx:

 Y-days HeatIdx:

 Evapotranspiration:

+0.2°F/hr 

+2.3°F

83.2°F

84.9°F 1:54pm

63.3°F 7:38am

81.3°F 2:33pm

60.6°F 2:49am

82.0°F 1:54pm

79.7°F 2:33pm

0.137 in

115' Above Ground

 Temperature:

 6'AGL VRS 115'AGL:

 Avg Running Temp:

 Humidity:

 Todays High:

 Todays Low:

 Y-days High:

 Y-days Low:

82.0°F 

-0.9°F

82.2°F

21% 

83.0°F 1:43pm

66.0°F 5:56am

81.0°F 2:29pm

64.0°F 1:49am

Temp & Humidity Graphs

  Wind 

Wind Speed

 Calm

Gusting to

 12.0 mph

Wind from S

178°  S

Calm

 Avg speed:

 Wind Run:

 Peak Gust:

  4.0 mph 

46.0 miles

  19.0 mph 12:47am

  Almanac  

Moon age: 11 days,19 hours,41 minutes,91%

Waxing Gibbous
91%
Illuminated
11 days in cycle

 Moonrise:

 Moonset:

 Sunrise:

 Sunset:

 Solar Noon:

5:38pm

3:24am

6:51am

7:03pm

12:56pm

2min 31s less daylight tomorrow 

  Solar Radiation 

(Current Solar)
  564 W/m2 (83%)
(Todays High)
 765 W/m2@12:33pm
Feels like: 93.4°F in the sun

Rain

 Rain Today:

 Rain Rate (/hr):

 Rain last hour:

 Rain Yesterday:

 This Month:

 Season Total:

118 Days Since Last Rain Day

0.00 in

0.000 in

0.00 in

0.00 in

0.00 in

0.00 in

Updated Time

Updated: 9/21/18  3:33pm

(Updated  sec ago)

Humidity & Barometer

 Humidity:

 Wetbulb:

 Dew Point:

 Barometer:

20% 

62.7°F 

37.7°F 

29.950 inHg 

 Baro Trend:  Steady 
Northern Calif
Preparedness
Fire 
Level 

    UV Index  

(Current UV)
3.2  Medium
(Todays High) @ 12:53pm
5.9   Medium

National Weather Service Forecast

This
Afternoon
This Afternoon: Sunny
Sunny
Tonight

Tonight: Clear
Clear
Saturday

Saturday: Sunny
Sunny
Saturday
Night
Saturday Night: Mostly Clear
Mostly Clear
Sunday

Sunday: Sunny
Sunny
Sunday
Night
Sunday Night: Mostly Clear
Mostly Clear
Hi 82 °F Lo 61 °F Hi 81 °F Lo 62 °F Hi 80 °F Lo 58 °F

Foresthill Probe 2 Stats  
Foresthill Probe 2: is located on Thomas Street
at 3000 feet. The main Foresthill Weather site
is located on Melody ln at the 2860 foot elevation

Light Air
83.2°F
28.4°C
Temp Rate:
+1.0°F
Calm
Gusting to
3.0 mph
(Humidity)
21%
Wind from SSE
159°  SSE
Updated: 21/09/18 - 15:28:37
 Todays High: 85.1°F 14:42
 Todays Low: 59.5°F 07:18
 Rain Today: 0.00 in
 Season Total: 0.00 in

Foresthill Wx: Monthly,Yearly, Highs and Lows 

Foresthill  
This Weather Data is coming from the main Foresthill
Weather site located on Melody ln at the 2860 foot
elevation
Not Foresthill Probe 2
Weather Data
Month
  High
Month
  Low
Year
High
Year
Low
Temp 91.8°F
9/5/18
52.8°F
9/16/18
93.9°F
8/10/18
21.9°F
2/23/18
Humidity 64%
9/1/18
13%
9/7/18
100%
1/8/18
12%
7/8/18
Heat Index 88.3°F
9/5/18
53.4°F
9/16/18
93.3°F
7/25/18
27.1°F
2/20/18
Wind Chill 91.8°F
9/5/18
49.6°F
9/14/18
93.9°F
8/10/18
9.2°F
2/23/18
Wind Gust 22 mph
9/12/18
0 mph
9/1/18
43 mph
3/1/18
0 mph
1/1/18
Barometer 30.02 in
9/6/18
29.77 in
9/11/18
30.55 in
1/27/18
29.60 in
6/16/18
ET 0.22 in
9/11/18
0.00 in
9/1/18
0.25 in
6/24/18
0.00 in
1/1/18
Dew Point 55.5°F
9/3/18
29.0°F
9/9/18
66.9°F
7/24/18
7.6°F
2/11/18
Pacific Satellite US Radar Satellite Imagery Sacramento,CA.  (click to enlarge)
NWS Weather Forecast - Summary
Updated: Friday, Sepember 21, 2018 - 4:03am PDT
Locally Gusty Ridgetop Winds this Weekend
Current Interstate Highway Conditions for I-80 & US-50

[I 80: IN THE SAN FRANCISCO BAY AREA - SOLANO CO]
no traffic restrictions are reported for this area.

[I 80: IN THE NORTHERN CALIFORNIA AREA & SIERRA NEVADA]
no traffic restrictions are reported for this area.

[US 50: IN THE SACRAMENTO VALLEY & THE LAKE TAHOE BASIN]
the eastbound connector to northbound i 5 /in sacramento/ (sacramento co)   Is closed from 11:00pm each night to 5:00am each morning monday thru friday thru 9/28/18 - due to construction - a detour is available
NWS Weather Forecast: This Afternoon and Tonight (Updated: Fri, 21-Sep-2018 1:59am PDT)
This
Afternoon
This Afternoon: Sunny
Sunny

Hi 82 °F
NWS forecast: Sunny, with a high near 82. Southwest wind around 8 mph.
Tonight

Tonight: Clear
Clear

Lo 61 °F
NWS forecast: Clear, with a low around 61. East southeast wind 3 to 8 mph.
YR.NO 10 Day Weather forecast
Last update: 09/21/2018 @ 00:42
Next update: 09/21/2018 @ 13:00
Provided by: 22
      Temperature Precipitation Pressure Wind  
Today
09/21/2018
13:00 18:00 84°F   29.94 inHg Light breeze from southwest 7 mph
  18:00 00:00 77°F   29.92 inHg Light breeze from southwest 4 mph
    (Click to enlarge)
meteogram

    Forecast for next 9 days

      Temperature Precip Pressure Wind  
Saturday
09/22/2018
00:00 06:00 52°F   29.96 inHg Light breeze from east-northeast 4 mph
  06:00 12:00 52°F   29.95 inHg Light breeze from east-northeast 6 mph
  12:00 18:00 82°F   29.94 inHg Gentle breeze from southwest 8 mph
  18:00 00:00 75°F   29.88 inHg Light breeze from south-southwest 4 mph
      Temperature Precip Pressure Wind  
Sunday
09/23/2018
00:00 06:00 57°F   29.89 inHg Light breeze from east 6 mph
  06:00 12:00 54°F   29.86 inHg Light breeze from east 6 mph
  12:00 18:00 79°F   29.88 inHg Light breeze from southwest 7 mph
  17:00 23:00 75°F   29.83 inHg Light breeze from west-southwest 5 mph
  23:00 05:00 54°F   29.86 inHg Light breeze from east-northeast 5 mph
      Temperature Precip Pressure Wind  
Monday
09/24/2018
05:00 11:00 50°F   29.84 inHg Light breeze from east-northeast 7 mph
  11:00 17:00 82°F   29.84 inHg Light breeze from southwest 4 mph
  17:00 23:00 81°F   29.82 inHg Light breeze from west-southwest 4 mph
  23:00 05:00 59°F   29.85 inHg Light breeze from east-northeast 7 mph
      Temperature Precip Pressure Wind  
Tuesday
09/25/2018
05:00 11:00 63°F   29.85 inHg Gentle breeze from east-northeast 9 mph
  11:00 17:00 86°F   29.87 inHg Light breeze from southwest 4 mph
  17:00 23:00 84°F   29.85 inHg Light breeze from west-southwest 5 mph
  23:00 05:00 59°F   29.89 inHg Light breeze from east-northeast 5 mph
      Temperature Precip Pressure Wind  
Wednesday
09/26/2018
05:00 11:00 54°F   29.88 inHg Light breeze from east-northeast 7 mph
  11:00 17:00 86°F   29.89 inHg Light breeze from west-southwest 4 mph
  17:00 23:00 86°F   29.82 inHg Light breeze from west-southwest 5 mph
  23:00 05:00 57°F   29.83 inHg Light breeze from east-northeast 4 mph
      Temperature Precip Pressure Wind  
Thursday
09/27/2018
05:00 11:00 54°F   29.79 inHg Light breeze from east-northeast 6 mph
  11:00 17:00 84°F   29.80 inHg Light breeze from southwest 5 mph
  17:00 23:00 84°F   29.72 inHg Light breeze from west-southwest 5 mph
  23:00 05:00 61°F   29.73 inHg Light breeze from east-northeast 4 mph
      Temperature Precip Pressure Wind  
Friday
09/28/2018
05:00 11:00 54°F   29.72 inHg Light breeze from east-northeast 4 mph
  11:00 17:00 77°F   29.77 inHg Light breeze from south-southwest 6 mph
  17:00 23:00 73°F   29.74 inHg Light breeze from southwest 6 mph
  23:00 05:00 57°F   29.83 inHg Light air from south-southeast 3 mph
      Temperature Precip Pressure Wind  
Saturday
09/29/2018
05:00 11:00 50°F   29.87 inHg Light air from southeast 2 mph
  11:00 17:00 63°F   29.92 inHg Light breeze from south-southwest 6 mph
  17:00 23:00 63°F   29.88 inHg Light breeze from southwest 6 mph
  23:00 05:00 52°F   29.96 inHg Light air from east-southeast 2 mph
      Temperature Precip Pressure Wind  
Sunday
09/30/2018
05:00 11:00 45°F   29.95 inHg Light air from east-northeast 3 mph
  11:00 17:00 61°F   29.99 inHg Light air from southwest 3 mph
How Close Are We To this Month's Temperature Record ?
Updated Friday, Sep 21, 2018- 3:25:01 PM

Current Temperature: 82.9°F

September's High: Temperature Record 95.9°F - Set on Wed, Sep 9, 2015 - 1:44:00 PM
We are currently 13°F Less than this Month's record High

September's Low: Temperature Record 44.1°F - Set on Sun, Sep 22, 2013 - 7:41:00 AM
We are currently 38.8°F More than this Month's record Low

Weather History For Friday, September 21, 2018


On this Day - In Weather History ...
Data courtesy of weatherforyou.com
powered by Cumulus v1.9.3 (1059)
Ambient Weather VWS v14.00
Top Contact Website Map Copyright © 2007 - 2018 Foresthillweather.com Never base important decisions on this or any weather information obtained from the Internet